STARLINK-3888, 52454

Orbit data source: Space-Track

STARLINK-3888, 52454 is a payload satellite owned by SpaceX/Seattle (US) in LEO that was launched on Fri, 06 May 2022 UTC via an FALCON 9 launch vehicle from the Air Force Eastern Test Range (AFETR). Payload-class satellites include a variety of spacecraft equipped with specific instruments for various scientific and technological missions. These include communications satellites like Starlink; space stations such as the ISS; scientific satellites like the Hubble; Earth observation satellites from companies like Planet Labs, Umbra, and HawkEye 360; GPS; miniature CubeSats for education and research; and military/defense satellites.

Loading next visibility...
Identifier
52454, 2022-049D
Orbit
LEO
Country
Flag of USUS
Related business
Manufacturer
SpaceX/Seattle
Mission
Operational Commercial Communications
Bus & Motor
STARLINK, Unknown motor
Mass
297 kg wet, ~220 kg dry
Launch date (UTC)
2022-05-06 (4 years ago)
Launch vehicle
FALCON 9
Launch site
Air Force Eastern Test Range (AFETR)
Object type
Payload
Rocket body
Debris
Shape & HBR
Box + 1 Pan, 10.1 m
Radar Cross Section
13.562 m², Large (>1 m²)

Expand to show TLE details & history
Last TLE update: 11 hours ago

TLE from 11 hours ago
0 STARLINK-3888
1 52454U 22049D   26220.00057216 -.00000068  00000-0  13841-4 0  9996
2 52454  53.1608 109.4530 0001502  88.2845 271.8318 15.08831082234959
Epoch: 2026-08-08T00:00Z
TLE epoch observation values (Epoch: 2026-08-08T00:00:49.434Z)
Latitude
-0.00006°
Longitude
152.72878°
Altitude
540.629 km
Speed
7.593 km/s
True Right ascension
07h 17m 48s
True Declination
0° 00' 00"
Sunlit
Object was in daylight at epoch
Visualization orbit readout
Latitude
Unknown
Longitude
Unknown
Altitude
Unknown
Speed
Unknown
Apparent Right ascension
Unknown
Apparent Declination
Unknown
Sunlit
N/A
Visualization observer readout
Local Sidereal Time
01:08:37
Azimuth
Unknown
Elevation
Unknown
Doppler factor
Unknown
Orbital elements
Apogee altitude
541.064 km
Perigee altitude
538.986 km
Semi-major axis
6,918.162 km
Eccentricity
0.00015
Inclination
53.1608°
RAAN
109.453°
Arg. of periapsis
88.2845°
True anomaly
271.8146°
Mean anomaly
271.8318°
Eccentric anomaly
271.8232°
Mean motion
3.77187 °/min
Orbital period
95.44 mins
BSTAR
0.000013841
Loading maneuver chart data...
Computing Atmospheric mass density...
Loading historical data...
Loading historical data...
Loading historical data...
Loading historical data...
Loading historical data...
Loading historical data...
Loading historical data...

Documentation

Showing up to 5 results
|